Regional Weather Roundup
Issued by NWS

Home | Current Version | Previous Version | Text Only | Print | Product List | Glossary Off
Versions: 1 2 3 4 5 6 7 8 9 10 11 12 13 14 15 16 17 18 19 20 21 22 23 24 25 26 27

000
ASUS45 KSLC 242210
RWRUT

UTAH REGIONAL WEATHER ROUNDUP
NATIONAL WEATHER SERVICE SALT LAKE CITY UT
300 PM MST FRI FEB 24 2017

UTZ001>011-023>025-242300-

NORTHERN UTAH

CITY           SKY/WX    TMP DP  RH WIND       PRES   REMARKS
BRIGHAM CITY     N/A     31  15  51 CALM      30.10S
HILL AFB       PTSUNNY   27  16  63 W5        30.08R WCI  22
LOGAN          CLOUDY    28  20  71 NW9       30.09R WCI  19
OGDEN          MOSUNNY   28  17  63 SW6       30.09S WCI  22
SALT LAKE CITY PTSUNNY   32  14  47 NW12      30.10R WCI  23
TOOELE VALLEY  CLOUDY    32  18  55 CALM      30.11S
WENDOVER       PTSUNNY   34   1  25 NW9       30.08S WCI  26
HEBER CITY     CLOUDY    30  10  43 S9G18     30.01R WCI  22
WEST JORDAN    CLOUDY    31  21  66 NW12      30.09S WCI  22

$$

UTZ011>015-024>027-242300-

CENTRAL/NORTHEAST UTAH

CITY           SKY/WX    TMP DP  RH WIND       PRES   REMARKS
PROVO AIRPORT  MOSUNNY   28  19  69 SW5       30.11S WCI  23
MOAB/CANYONLAN PTSUNNY   39   5  24 NW8       29.98S WCI  33
DELTA          SUNNY     30  16  55 S5        30.09F WCI  25
PRICE          MOSUNNY   29   7  39 NW9G21    29.97R WCI  20
RICHFIELD      CLOUDY    30  14  51 NE6       30.07F WCI  24
ROOSEVELT      PTSUNNY   32  23  69 N8        30.01R WCI  25
VERNAL         CLOUDY    27  20  75 NE9       29.99R WCI  18

$$

UTZ013>016-019>022-027-242300-

SOUTHERN UTAH

CITY           SKY/WX    TMP DP  RH WIND       PRES   REMARKS
BRYCE CANYON   SUNNY     22  -1  36 NW16      29.97S WCI   8
CEDAR CITY     SUNNY     33   3  28 VRB3      30.02S
MILFORD        SUNNY     32  11  41 VRB3      30.06F
ST GEORGE      PTCLDY    46  10  23 SW12G20   30.09F
HANKSVILLE     SUNNY     41  -4  15 W12G21    30.03S
KANAB          SUNNY     41   3  20 W12G18    30.07S
BLANDING       CLOUDY    31  16  53 N7        30.04S WCI  24

$$

REGIONAL REPORTS     COLORADO/ARIZONA

CITY           SKY/WX    TMP DP  RH WIND       PRES   REMARKS
CRAIG, CO      CLOUDY    25  13  60 VRB7G17   29.96R WCI  17
GRAND JUNCTION PTSUNNY   32  19  58 N14       29.97R WCI  22
RIFLE, CO      CLOUDY    31  13  47 NW10      29.93S WCI  22
MONTROSE, CO   CLOUDY    26  20  77 S10       29.99R WCI  16
CORTEZ, CO     CLOUDY    32  16  51 VRB3      29.96S
COLORADO CITY    N/A     41   7  24 W9        30.08F
PAGE, AZ       SUNNY     44  -8  11 VRB7G17   30.01S
GRAND CANYON   SUNNY     34   5  29 W13G21    30.02S WCI  25
KINGMAN, AZ    SUNNY     49 -14   7 SE7       30.10F
FLAGSTAFF, AZ  SUNNY     37   4  25 SW12G23   30.00S WCI  29

$$

REGIONAL REPORTS    NEVADA/IDAHO/WYOMING

CITY           SKY/WX    TMP DP  RH WIND       PRES   REMARKS
LAS VEGAS, NV  MOSUNNY   52   8  17 VRB3      30.11F
ELY, NY        CLOUDY    25   4  40 NE3       30.04S
ELKO, NV       CLOUDY    32   8  36 SW12G17   30.07F WCI  23
POCATELLO, ID  CLOUDY    23  16  74 W20       30.09R WCI   8
BURLEY, ID     MIX PCPN  30  13  49 W21       30.09R WCI  17
FORT BRIDGER,  LGT SNOW  21  14  74 W20       29.97R WCI   5
EVANSTON, WY   CLOUDY    17   9  70 SW18      29.95S WCI   1
ROCK SPRINGS,  CLOUDY    19  10  68 SW17      29.92R WCI   4

$$




USA.gov is the U.S. government's official web portal to all federal, state and local government web resources and services.